Wind_Speed
16 18 19 21 23 24 26 28 30 32 33 35 35 36 37 38 38 38 37 37 36 37 37 37 37 36 35 35 34 34 33 33 32 31 30 28 28 30 32 32 33 34 35
15 17 18 20 22 24 26 28 30 31 33 34 35 35 36 36 37 37 37 37 37 36 36 36 36 36 36 36 35 35 35 34 33 32 31 30 28 27 30 32 32 32 33
13 16 17 19 20 22 24 26 28 30 31 33 34 34 35 35 36 36 36 36 36 35 35 35 35 36 36 36 36 35 35 34 33 33 32 31 30 28 28 29 31 32 33
12 14 16 17 19 21 22 24 26 28 30 31 32 33 34 35 36 36 36 36 36 35 35 34 34 34 34 34 34 35 35 34 34 34 33 32 30 29 28 28 30 32 33
11 14 16 18 20 21 23 24 26 27 29 30 32 33 34 34 35 35 35 35 35 35 34 33 32 32 32 33 33 33 34 34 34 34 33 33 31 31 30 29 29 30 31
13 15 17 19 21 23 24 26 27 29 30 32 33 34 34 35 35 35 35 35 36 36 36 34 33 32 32 33 33 32 32 33 34 34 34 34 33 32 32 31 30 29 30
16 18 20 22 24 26 28 29 31 32 33 34 35 36 36 36 36 36 37 37 37 38 38 37 36 35 34 33 33 33 33 33 33 34 34 35 35 35 34 33 31 31 32
20 22 24 26 28 30 31 33 34 35 36 37 37 37 38 38 38 38 38 39 39 39 40 40 40 39 37 36 35 34 34 34 34 34 34 35 36 36 36 35 33 31 32
24 25 28 30 31 33 35 36 37 37 37 38 38 38 38 38 39 39 39 39 40 40 41 41 41 41 40 39 39 38 37 36 36 35 35 36 36 37 37 38 36 34 33
26 28 31 33 34 36 37 38 38 39 39 38 38 38 39 39 39 40 40 40 41 41 41 41 41 42 42 41 41 41 41 40 39 39 38 38 38 38 39 39 40 38 36
29 30 33 35 36 37 38 38 39 39 39 39 39 40 40 40 40 41 41 41 41 41 41 41 42 42 42 43 43 43 44 44 43 43 43 42 42 41 41 41 41 41 39
29 32 34 36 36 37 38 39 39 39 39 39 40 41 41 42 42 42 42 42 41 41 41 41 41 41 42 43 44 45 46 47 47 47 47 47 47 47 46 45 43 43 42
30 33 35 36 36 37 38 38 38 39 40 41 41 42 43 43 44 43 43 42 41 41 41 41 41 41 43 44 45 47 48 49 49 50 51 51 51 51 51 50 49 47 45
31 34 35 36 36 37 38 39 39 40 41 42 43 43 44 44 44 43 42 41 41 40 40 40 41 42 43 45 46 48 49 50 51 52 52 53 54 54 55 54 54 52 50
32 34 35 36 37 38 39 40 40 41 42 44 44 45 45 45 44 43 42 41 40 40 40 41 42 43 44 45 46 47 48 50 51 52 53 54 55 56 57 57 58 57 55
33 34 36 37 38 39 40 41 42 42 44 45 46 46 46 45 44 43 42 41 40 40 41 42 42 42 43 44 45 46 47 48 49 50 51 53 54 55 58 59 61 61 60
33 35 37 38 39 40 41 42 43 44 45 46 47 47 46 45 44 43 42 40 40 41 42 41 41 41 42 43 43 43 44 44 45 47 49 50 51 52 56 59 62 64 63
34 36 37 39 40 41 42 43 44 45 46 47 48 48 47 46 44 43 41 41 41 41 41 40 40 40 40 40 40 40 40 41 41 43 45 46 48 49 52 57 60 63 65
35 37 38 39 40 41 42 44 45 46 47 48 48 48 47 46 44 42 41 41 41 40 40 39 39 39 38 38 37 37 36 36 37 38 40 42 43 46 49 53 57 61 65
37 38 39 40 41 42 43 44 45 46 47 48 49 49 48 46 44 42 42 41 40 39 39 38 38 37 36 34 33 33 32 32 32 33 34 36 39 42 46 49 53 58 63
37 38 40 41 42 42 43 45 45 47 48 48 49 49 48 46 44 42 42 41 40 39 38 37 37 35 33 31 30 29 27 26 26 26 27 30 33 37 42 46 49 54 60
38 39 41 42 42 43 44 45 45 46 48 48 49 49 48 46 44 43 41 41 40 38 37 37 35 33 31 29 27 26 23 21 20 19 20 23 28 33 37 42 44 49 56
39 40 42 42 43 43 44 45 45 46 48 48 49 48 48 46 44 42 41 41 39 37 36 35 33 31 29 27 24 22 19 18 16 14 14 17 22 27 33 38 41 44 50
40 42 42 43 43 43 44 45 45 46 48 49 49 48 47 46 44 42 41 40 38 36 35 33 31 29 27 24 21 18 17 14 11 8 8 12 17 23 29 35 39 42 46
42 43 43 43 43 43 44 45 45 46 47 49 49 48 47 45 43 41 40 40 38 36 34 32 29 27 25 22 19 16 14 11 7 6 6 9 14 20 25 30 35 38 42
43 43 43 43 43 44 44 45 45 46 47 48 48 47 46 45 43 40 40 39 37 36 34 31 28 27 23 20 17 14 11 8 6 5 5 8 12 17 22 28 32 36 39
Wind_Direction
284 286 288 290 291 291 292 293 293 293 293 294 294 294 294 293 293 292 290 288 287 285 284 283 282 280 279 277 276 274 273 273 271 270 269 268 263 254 247 245 242 239 237
292 293 293 294 293 294 294 295 295 295 295 295 296 296 295 293 292 291 290 288 286 284 283 281 280 278 277 276 274 273 272 271 269 267 266 266 263 256 248 245 242 238 236
295 298 297 297 297 298 298 298 297 297 296 297 297 297 297 296 295 293 292 290 287 285 282 280 278 277 275 274 273 271 270 268 268 266 264 264 260 255 251 247 242 239 237
304 307 307 305 305 305 304 303 301 300 300 300 300 300 299 298 297 296 295 293 290 288 285 283 280 278 275 273 271 269 267 265 264 262 261 259 256 254 252 248 244 241 239
321 320 318 316 313 312 310 309 307 306 305 305 304 303 302 302 300 299 297 295 293 291 288 285 282 279 276 274 271 269 267 265 263 260 258 256 254 253 253 249 245 242 240
334 329 325 321 318 317 316 315 313 312 311 310 309 308 307 306 304 302 300 298 295 293 290 287 284 281 277 275 273 270 267 265 262 259 255 253 251 249 249 248 245 241 237
339 333 329 327 325 325 323 320 318 317 315 314 312 310 309 307 306 304 301 299 296 294 291 288 285 282 279 276 273 271 268 265 262 258 254 251 248 246 246 245 244 241 237
342 338 334 331 330 327 325 323 321 320 317 315 313 311 310 308 306 304 301 299 296 294 291 289 286 282 279 275 273 272 269 265 261 258 254 250 247 245 244 241 240 240 237
342 340 337 334 331 329 326 324 322 320 318 316 314 312 310 309 307 304 302 299 296 293 290 288 285 283 280 276 274 271 269 266 262 258 255 252 248 245 242 239 237 237 235
343 340 336 334 331 329 327 324 323 321 320 318 316 314 313 311 308 306 303 301 297 294 290 287 284 282 280 278 275 271 268 265 263 259 256 253 249 246 243 239 236 234 233
340 337 334 333 331 329 327 326 325 324 323 322 320 318 316 313 311 308 305 302 299 295 291 287 284 282 280 278 276 273 269 266 263 260 257 253 250 247 243 240 237 234 232
337 334 333 332 331 330 329 328 328 327 326 325 324 322 320 317 314 311 308 305 301 297 293 289 286 283 281 279 277 274 271 268 265 261 257 254 251 247 244 241 238 234 232
334 334 334 333 332 331 331 330 330 330 330 329 327 325 322 319 316 313 310 307 303 300 296 293 289 286 284 282 279 276 273 270 266 262 258 254 251 247 243 240 238 234 231
334 334 333 333 333 333 333 333 333 333 333 331 329 327 325 322 318 315 312 309 305 302 299 296 293 290 287 284 281 278 274 271 268 264 260 255 251 247 243 239 236 234 231
332 332 333 334 334 335 336 336 335 335 334 333 331 329 327 324 321 318 315 311 308 305 302 300 297 294 291 288 284 280 276 273 269 265 260 256 251 246 243 239 235 232 230
330 331 333 335 335 336 336 336 336 335 335 334 333 331 329 326 323 320 317 314 310 308 306 304 301 298 295 292 288 283 279 275 270 266 262 257 252 247 242 237 233 230 228
329 331 333 335 335 335 335 335 336 335 335 335 334 333 330 327 325 322 319 316 314 312 310 307 305 302 299 296 292 288 283 277 272 267 262 257 252 246 240 235 231 228 226
329 331 332 333 333 334 334 334 335 336 336 336 335 334 332 329 326 323 321 319 317 315 313 311 309 306 303 299 296 292 287 281 275 268 262 256 250 244 237 231 228 225 223
328 329 330 331 331 332 333 334 334 335 336 337 336 335 333 331 328 325 323 322 320 318 317 315 313 310 306 303 299 295 290 284 277 270 263 255 247 240 234 228 224 222 220
326 327 328 329 330 331 332 332 333 334 336 337 337 336 334 332 330 327 326 325 324 322 320 318 317 314 311 308 304 299 294 287 280 272 263 253 244 235 229 224 221 219 217
324 325 326 328 328 329 330 331 332 334 336 337 337 336 335 333 332 330 328 328 327 325 323 322 320 317 314 312 309 306 301 295 287 276 262 249 238 229 224 220 217 216 215
322 324 325 326 327 328 329 330 332 334 336 337 337 336 336 335 333 332 331 330 330 328 326 325 324 321 319 317 314 311 307 303 296 281 261 245 233 224 218 215 214 213 212
322 323 325 325 326 327 328 330 331 334 336 337 338 337 336 336 335 334 334 333 332 331 330 329 328 325 324 322 320 317 314 309 299 285 262 238 223 214 211 209 209 209 209
321 323 324 324 325 326 328 329 331 333 335 337 338 337 337 336 336 335 336 336 335 334 333 332 331 329 328 327 326 324 322 316 304 288 253 223 213 208 205 204 203 204 206
320 322 323 323 324 326 328 329 331 332 334 337 338 338 337 337 337 336 337 338 337 336 335 334 333 333 332 331 331 329 327 320 306 281 241 213 201 199 201 201 199 201 203
319 320 321 322 323 325 327 329 330 331 333 336 337 337 337 337 337 337 338 339 339 339 338 336 335 335 335 334 333 333 330 322 306 276 235 209 200 198 198 199 199 200 201
Height
5868 5866 5864 5862 5860 5858 5855 5852 5849 5846 5843 5839 5836 5833 5830 5827 5824 5821 5818 5816 5813 5811 5809 5807 5805 5804 5803 5803 5802 5802 5802 5802 5801 5802 5802 5803 5803 5805 5807 5810 5813 5817 5820
5864 5862 5860 5858 5856 5853 5850 5847 5844 5840 5836 5832 5828 5825 5822 5819 5815 5812 5809 5807 5804 5802 5800 5798 5796 5795 5794 5794 5793 5793 5793 5793 5793 5794 5794 5795 5797 5797 5800 5802 5805 5809 5812
5861 5859 5857 5854 5852 5849 5846 5842 5838 5834 5829 5825 5821 5817 5813 5809 5806 5802 5799 5797 5794 5792 5790 5788 5787 5786 5785 5784 5783 5783 5784 5784 5784 5785 5786 5787 5788 5790 5792 5795 5797 5800 5804
5857 5855 5853 5850 5847 5844 5840 5836 5832 5828 5823 5819 5814 5810 5806 5801 5797 5793 5790 5786 5783 5781 5779 5778 5777 5775 5774 5774 5773 5773 5773 5774 5775 5776 5777 5778 5780 5782 5784 5787 5789 5792 5795
5854 5851 5848 5845 5842 5838 5835 5831 5826 5822 5817 5812 5807 5802 5798 5793 5789 5785 5781 5777 5774 5771 5769 5768 5767 5765 5764 5763 5763 5763 5763 5763 5765 5766 5768 5769 5771 5773 5776 5779 5781 5784 5787
5850 5847 5844 5841 5837 5833 5829 5824 5820 5815 5810 5804 5799 5794 5790 5785 5780 5776 5772 5768 5764 5761 5759 5757 5756 5755 5754 5753 5752 5752 5753 5753 5754 5756 5758 5760 5762 5764 5767 5770 5773 5776 5779
5846 5843 5840 5836 5831 5827 5822 5817 5812 5807 5802 5797 5791 5786 5781 5777 5772 5767 5763 5759 5755 5751 5748 5746 5745 5744 5743 5742 5741 5741 5742 5743 5744 5745 5747 5749 5752 5755 5758 5761 5764 5767 5771
5841 5838 5834 5830 5825 5820 5815 5810 5805 5800 5794 5789 5783 5778 5773 5768 5763 5758 5754 5750 5745 5741 5738 5735 5733 5732 5731 5731 5731 5731 5731 5732 5733 5734 5736 5739 5741 5744 5747 5751 5755 5758 5762
5836 5832 5828 5824 5819 5814 5809 5803 5798 5793 5787 5781 5776 5770 5765 5759 5754 5749 5744 5740 5735 5731 5727 5724 5721 5720 5719 5718 5718 5719 5719 5720 5722 5723 5725 5728 5730 5733 5737 5740 5744 5749 5752
5831 5827 5823 5818 5813 5808 5802 5797 5791 5785 5779 5773 5767 5761 5756 5750 5744 5739 5734 5729 5724 5720 5716 5712 5709 5707 5705 5705 5704 5705 5706 5707 5709 5711 5713 5716 5719 5722 5725 5729 5734 5738 5743
5827 5823 5819 5814 5808 5802 5796 5790 5784 5777 5771 5765 5759 5753 5746 5740 5734 5729 5723 5718 5713 5708 5704 5700 5697 5694 5692 5691 5690 5690 5691 5693 5694 5697 5700 5703 5706 5710 5714 5718 5722 5727 5732
5824 5820 5815 5809 5803 5797 5791 5784 5777 5771 5764 5757 5750 5744 5737 5731 5724 5718 5712 5706 5701 5696 5691 5688 5684 5681 5679 5677 5676 5675 5675 5676 5678 5680 5683 5687 5690 5695 5700 5705 5710 5716 5721
5821 5816 5810 5805 5798 5792 5785 5778 5771 5764 5757 5750 5743 5735 5728 5721 5714 5707 5700 5694 5689 5683 5679 5675 5671 5668 5665 5663 5661 5659 5659 5659 5660 5662 5666 5669 5673 5679 5684 5690 5696 5702 5709
5817 5812 5806 5800 5793 5787 5780 5772 5765 5758 5750 5743 5735 5728 5720 5712 5704 5697 5690 5683 5677 5672 5667 5662 5658 5654 5651 5648 5645 5642 5641 5641 5641 5643 5646 5649 5654 5660 5666 5673 5681 5688 5695
5812 5807 5801 5795 5788 5781 5774 5766 5759 5751 5744 5736 5728 5720 5711 5703 5695 5687 5680 5673 5667 5661 5655 5650 5645 5640 5636 5632 5628 5625 5623 5622 5621 5622 5624 5628 5633 5639 5646 5654 5663 5671 5680
5808 5803 5796 5790 5782 5775 5768 5761 5753 5745 5737 5729 5720 5712 5703 5694 5685 5678 5670 5663 5656 5650 5643 5637 5632 5626 5620 5615 5611 5607 5605 5603 5602 5602 5603 5606 5611 5617 5625 5633 5643 5653 5663
5803 5797 5791 5784 5777 5770 5762 5755 5747 5739 5730 5721 5712 5703 5694 5685 5677 5668 5660 5653 5646 5639 5632 5625 5618 5612 5606 5600 5595 5590 5587 5584 5582 5582 5583 5585 5590 5595 5603 5612 5622 5633 5644
5798 5792 5785 5778 5771 5764 5756 5748 5740 5732 5723 5714 5705 5695 5686 5677 5668 5659 5651 5643 5636 5628 5620 5613 5606 5599 5592 5586 5580 5575 5570 5567 5565 5564 5564 5566 5570 5575 5583 5591 5602 5613 5626
5792 5786 5780 5773 5766 5758 5750 5742 5734 5725 5716 5707 5697 5688 5678 5669 5660 5651 5642 5634 5626 5617 5609 5602 5594 5587 5580 5573 5567 5561 5556 5552 5549 5547 5547 5548 5552 5557 5564 5573 5585 5596 5608
5786 5780 5774 5767 5760 5752 5744 5736 5727 5718 5709 5699 5690 5680 5670 5661 5652 5642 5634 5625 5616 5608 5599 5592 5584 5576 5569 5562 5555 5548 5543 5539 5535 5532 5531 5533 5536 5541 5547 5557 5568 5579 5591
5780 5774 5767 5760 5753 5745 5737 5729 5720 5711 5702 5692 5682 5672 5662 5653 5643 5634 5625 5616 5608 5599 5590 5582 5574 5566 5559 5552 5545 5538 5532 5528 5523 5520 5519 5520 5523 5528 5535 5544 5555 5565 5576
5774 5767 5761 5753 5746 5738 5731 5722 5713 5704 5695 5685 5675 5665 5655 5645 5636 5626 5617 5608 5599 5590 5582 5574 5565 5557 5550 5543 5537 5530 5525 5520 5516 5512 5510 5511 5513 5518 5525 5534 5544 5553 5564
5767 5760 5753 5746 5739 5731 5723 5715 5706 5697 5688 5678 5668 5658 5647 5637 5628 5619 5610 5601 5591 5583 5575 5566 5558 5550 5543 5537 5530 5525 5520 5515 5511 5507 5505 5506 5508 5512 5519 5527 5535 5544 5554
5759 5753 5746 5739 5731 5724 5716 5708 5699 5690 5681 5671 5661 5651 5641 5631 5621 5612 5603 5594 5585 5576 5568 5560 5552 5545 5538 5531 5526 5521 5516 5512 5508 5505 5503 5503 5505 5509 5514 5521 5529 5538 5548
5751 5745 5738 5731 5724 5716 5708 5700 5692 5683 5674 5664 5655 5645 5635 5625 5616 5606 5597 5588 5579 5570 5563 5555 5547 5540 5534 5528 5522 5518 5514 5510 5507 5505 5503 5504 5505 5508 5513 5519 5526 5534 5543
5743 5736 5730 5723 5716 5708 5701 5693 5685 5676 5668 5659 5649 5639 5630 5620 5611 5602 5592 5583 5574 5566 5557 5550 5543 5536 5530 5525 5520 5516 5512 5509 5507 5505 5504 5505 5506 5509 5512 5518 5524 5531 5539